Regional Weather Roundup
Issued by NWS

Home | Current Version | Previous Version | Graphics & Text | Print | Product List | Glossary On
Versions: 1 2 3 4 5 6 7 8 9 10 11 12 13 14 15 16 17 18 19 20 21 22 23 24 25 26 27 28 29 30 31 32 33 34 35 36 37 38 39 40 41 42 43 44 45 46 47 48 49 50
000
ASUS43 KMKX 271421
RWRWI

WISCONSIN REGIONAL WEATHER ROUNDUP
NATIONAL WEATHER SERVICE MILWAUKEE/SULLIVAN WI
900 AM CDT WED JUL 27 2016

NOTE: "FAIR" INDICATES FEW OR NO CLOUDS BELOW 12,000 FEET WITH NO
SIGNIFICANT WEATHER AND/OR OBSTRUCTIONS TO VISIBILITY.

WIZ001-002-006>008-014>016-023>028-271500-
NORTHWEST WISCONSIN

CITY           SKY/WX    TMP DP  RH WIND       PRES   REMARKS
SUPERIOR ARPT  CLOUDY    67  62  86 NE7       29.99R
ASHLAND        CLOUDY    71  67  87 CALM      29.99F
HAYWARD        CLOUDY    67  65  93 SW7       30.00R
SIREN          NOT AVBL
CUMBERLAND     CLOUDY    64  63  94 S3        30.01R
RICE LAKE      CLOUDY    69  64  83 S3        30.02R
CHETEK         CLOUDY    69  64  86 CALM      30.02R
LADYSMITH      CLOUDY    67  65  92 SE3       30.03S
EAU CLAIRE     CLOUDY    74  69  85 NE3       30.01R
MENOMONIE      CLOUDY    73  70  88 N3        30.01R
NEW RICHMOND   CLOUDY    73  70  89 SE5       29.99F
OSCEOLA        PTSUNNY   73  73 100 CALM      30.01S
$$

WIZ003>005-009-010-017-018-271500-
NORTH CENTRAL WISCONSIN

CITY           SKY/WX    TMP DP  RH WIND       PRES   REMARKS
MANITOWISH WTR LGT RAIN  65  65 100 N5        30.02F
ARBOR VITAE    LGT RAIN  66  64  94 E3        30.02F
WOODRUFF       LGT RAIN  66  64  94 E3        30.02F
RHINELANDER    LGT RAIN  65  62  90 W5        30.06R
EAGLE RIVER    DRIZZLE   66  65  97 W6        30.04S
LAND O LAKES   RAIN      67  66  97 W3        30.06R
PHILLIPS       LGT RAIN  65  64  96 CALM      30.02S
TOMAHAWK       RAIN      63  61  94 CALM      30.07S
MEDFORD        PTSUNNY   65  65 100 NE6       30.05F
MERRILL        CLOUDY    66  65  94 NW6       30.08R
$$

WIZ029-030-035-036-043>047-271500-
CENTRAL WISCONSIN

CITY           SKY/WX    TMP DP  RH WIND       PRES   REMARKS
WAUSAU         TSTM      70  63  78 N13G24    30.05R
MOSINEE        MOSUNNY   73  70  88 CALM      30.03F
MARSHFIELD     MOSUNNY   78  69  73 W9        30.01S HX  80
STEVENS POINT  MOSUNNY   76  68  77 S3        30.01F
WAUPACA        MOSUNNY   80  69  69 CALM      30.01S HX  82
WAUTOMA        MOSUNNY   77  70  79 VRB3      30.01S
WISC RAPIDS    LGT RAIN  77  67  71 CALM      30.02F
CAMP DOUGLAS   MOSUNNY   77  72  83 W6        30.01F
$$

WIZ011>013-019>022-031-037>040-048>050-271500-
NORTHEAST WISCONSIN

CITY           SKY/WX    TMP DP  RH WIND       PRES   REMARKS
ANTIGO         CLOUDY    68  64  89 NW3       30.07R
SHAWANO        PTSUNNY   77  66  68 NW7       30.02R THUNDER
OCONTO         MOSUNNY   75  67  75 W3        29.99S
STURGEON BAY   SUNNY     76  68  76 W6        30.00R
GREEN BAY      SUNNY     77  68  73 SW6       29.99S
MANITOWOC      MOSUNNY   78  66  66 CALM      29.99S HX  80
APPLETON       PTSUNNY   72  63  73 S7        29.99S
CLINTONVILLE   MOSUNNY   77  64  65 SW6       30.01R
OSHKOSH        PTSUNNY   78  67  68 W5        30.01R HX  80
$$

WIZ032>034-041-042-053>061-271500-
SOUTHWEST WISCONSIN

CITY           SKY/WX    TMP DP  RH WIND       PRES   REMARKS
LA CROSSE      MOSUNNY   78  69  73 S5        30.01R HX  80
SPARTA         SUNNY     74  68  82 SW3       30.02S
VIROQUA        MOSUNNY   75  68  77 CALM      30.04S
BOSCOBEL       SUNNY     75  69  81 CALM      30.02S
PRAIRIE DU CHI MOSUNNY   74  68  80 CALM      30.02S
PLATTEVILLE    SUNNY     77  69  78 CALM      30.04S
$$

WIZ056-057-062-063-064-067-068-271500-
SOUTH CENTRAL WISCONSIN

CITY           SKY/WX    TMP DP  RH WIND       PRES   REMARKS
REEDSBURG      MOSUNNY   77  69  75 CALM      30.03R
BARABOO/DELLS  PTSUNNY   75  66  73 W5        30.03S
LONE ROCK      SUNNY     73  68  84 CALM      30.03S
MINERAL POINT  SUNNY     77  66  69 CALM      30.04S
MADISON        PTSUNNY   78  67  68 NW5       30.01F HX  80
MIDDLETON      SUNNY     79  68  69 W3        30.03S HX  81
WATERTOWN      MOSUNNY   76  69  79 W3        30.01F
MONROE         SUNNY     77  64  65 CALM      30.04S
JANESVILLE     PTSUNNY   79  66  65 CALM      30.01S HX  81
$$

WIZ051-052-058>065-066-070>072-271500-
SOUTHEAST WISCONSIN

CITY           SKY/WX    TMP DP  RH WIND       PRES   REMARKS
MILWAUKEE      MOSUNNY   83  66  56 W8        30.00S HX  85
WAUKESHA       SUNNY     75  66  73 W6        30.03S
MILWAUKEE/TIMM SUNNY     79  63  57 NW7       30.02S HX  80
RACINE         SUNNY     80  67  64 W7        30.03R HX  82
BURLINGTON     SUNNY     78  69  72 CALM      30.02S HX  80
KENOSHA        MOSUNNY   79  68  69 W5        30.02S HX  81
FOND DU LAC    SUNNY     78  70  76 SW6       30.00F HX  80
SHEBOYGAN      SUNNY     80  66  62 CALM      29.99S HX  82
WEST BEND      SUNNY     79  64  61 NW6       30.01S HX  81
JUNEAU         MOSUNNY   74  67  79 CALM      30.03S
$$

LSZ147-162-271500-
LAKE SUPERIOR

STATION/POSITION TIME  TEMP    WIND        PRES    WAVE
                       AIR SEA DIR/SP/G            HT/PER
                 (UTC) (F)     (DEG/KT/KT) (MB)    (FT/S)
W MID LAKE BUOY  1350   64 60   50/ 16/ 17 1015.2F   1/ 3
DEVILS ISLAND    1400   64      70/ 12/ 14 1016.6R
PORT WING        1300   68      40/ 13/ 14 1015.6S
SAXON HARBOR     1300   70     170/  3/  6 1015.6R
$$

LMZ867-665-643>646-271500-
LAKE MICHIGAN

STATION/POSITION TIME  TEMP    WIND        PRES    WAVE
                       AIR SEA DIR/SP/G            HT/PER
                 (UTC) (F)     (DEG/KT/KT) (MB)    (FT/S)
CHAMBERS ISLAND  1300   72     250/  6/  7 1014.9R
S GREEN BAY BUOY 1400   73 74  320/  6/  6   N/A
N MID LAKE BUOY  1350   70 70  240/  4/  4 1014.2R   1/ 4
NORTHPORT PIER   1300   73      CALM  /  2 1014.6S
SISTER BAY       1321   81        CALM       N/A
ALGOMA LAKESHORE 1313           CALM  /  6   N/A
KEWAUNEE LAKESHO 1300   65     180/  5/  6 1014.6F
SHEBOYGAN LAKESH 1400   74      50/  2/  2 1015.5S
PORT WASHINGTON  1300   80     280/  4/  8 1016.6S
ATWATER BUOY     1400   68 54   10/  6/  6 1017.5R
MILWAUKEE LAKESH 1410   70      50/  4/  5   N/A
S MID LAKE BUOY  1350   75 74  230/  8/  8 1015.3F   0
KENOSHA   LAKESH 1400   80     270/  4/  7 1015.9S
$$

TC  - TEMPERATURE IN CELSIUS
VSB - VISIBILITY IN STATUTE MILES
WCI - WIND CHILL INDEX
HX  - HEAT INDEX




USA.gov is the U.S. government's official web portal to all federal, state and local government web resources and services.